CAPE
34 56 39 20 23 57 37 49 36 34 51 16 9 0 0 0 0 0 0 0 0 0 0 0 0 0 0 0 0 0 0 0 0 0 0 0 0 0 0 0 0 0 0 0 0
36 22 35 16 34 6 0 15 17 21 43 54 20 0 0 0 0 0 0 0 0 0 0 0 0 0 0 0 0 0 0 0 0 0 0 0 0 0 0 0 0 0 0 0 0
9 31 40 60 5 1 0 0 1 0 0 87 17 5 0 0 0 0 8 0 0 0 0 0 0 0 0 0 0 0 0 0 0 0 0 0 0 0 0 0 0 0 0 0 0
0 0 1 0 0 0 4 0 0 35 1 98 14 15 0 0 0 1 1 0 0 0 0 0 0 0 0 0 0 0 0 0 0 0 0 0 0 0 0 0 0 0 0 0 0
3 0 0 0 0 0 0 9 2 54 1 36 11 16 0 0 1 1 2 0 0 0 0 0 0 0 0 0 0 0 0 0 0 0 0 0 0 0 0 0 0 0 0 0 0
1 0 0 0 0 0 0 2 12 4 5 53 14 1 0 0 0 0 0 0 0 0 0 0 0 0 0 0 0 0 0 0 0 0 0 0 0 0 0 0 0 0 0 0 0
2 0 0 0 0 0 5 1 40 8 0 13 0 0 0 0 0 0 0 0 0 0 0 0 0 0 0 0 0 0 0 0 0 0 0 0 0 0 0 0 0 0 0 0 0
25 8 21 0 1 2 5 43 70 16 31 16 0 0 0 0 0 0 0 0 0 0 0 0 0 0 0 0 0 0 0 0 0 0 0 0 0 0 0 0 0 0 0 0 0
38 30 7 10 7 22 49 42 32 18 15 1 0 0 0 0 0 0 0 0 0 0 0 0 0 0 0 0 0 0 0 0 0 0 0 0 0 0 0 0 0 0 0 0 0
54 40 13 0 12 2 0 1 4 4 0 0 0 0 0 0 0 0 0 0 0 0 0 0 0 0 0 0 0 0 0 0 0 0 0 0 0 0 0 0 0 0 0 0 0
34 12 29 6 0 0 0 0 0 0 0 4 0 0 0 0 0 0 0 0 0 0 0 0 0 0 0 0 0 0 0 0 0 0 0 0 0 0 0 0 0 0 0 0 0
11 12 13 13 3 0 0 0 1 0 2 7 5 0 0 0 0 0 0 0 0 0 0 0 0 0 0 0 0 0 0 0 0 0 0 0 0 0 0 0 0 0 0 0 0
8 3 20 5 0 0 0 0 0 0 0 0 0 0 0 0 0 0 0 0 0 0 0 0 0 0 0 0 0 0 0 0 0 0 0 0 0 0 0 0 0 0 0 0 0
3 0 0 1 0 0 0 0 0 0 0 0 0 0 0 0 0 0 0 0 0 0 0 0 0 0 0 0 0 0 0 0 0 0 0 0 0 0 0 0 0 0 0 0 0
0 0 7 1 0 0 0 0 0 0 0 0 0 0 0 0 0 0 0 0 0 0 0 0 0 0 0 0 0 0 0 0 0 0 0 0 0 0 0 0 0 0 0 0 0
0 0 0 0 0 0 0 0 0 0 0 0 0 0 0 0 0 0 0 0 0 0 0 0 0 0 0 0 0 0 0 0 0 0 0 0 0 0 0 0 0 0 0 0 0
0 0 0 0 0 0 0 0 0 0 0 0 0 0 0 0 0 0 0 0 0 0 0 0 0 0 0 0 0 0 0 0 0 0 0 0 0 0 0 0 0 0 0 1 0
0 0 0 0 0 0 0 0 0 1 0 0 0 0 0 0 0 0 0 0 0 0 0 0 0 0 0 0 0 0 0 0 0 0 0 0 0 0 0 0 0 0 1 2 2
0 0 0 0 0 0 0 0 1 0 0 0 0 0 0 0 0 0 0 0 0 0 0 0 0 0 0 1 0 0 0 0 0 0 0 0 0 0 0 0 0 0 0 1 2
0 0 0 0 0 0 0 0 0 0 0 0 0 0 0 0 0 0 0 0 0 0 0 0 0 0 0 0 0 0 0 0 0 0 0 0 0 0 0 0 0 0 0 1 2
0 0 0 0 0 0 0 0 0 0 0 0 0 0 0 0 0 0 0 0 0 0 0 0 0 0 0 0 0 1 0 1 0 0 0 0 0 0 0 0 0 1 0 1 0
0 0 0 0 0 0 0 0 0 0 0 0 0 0 0 0 0 0 0 0 0 0 0 0 0 0 0 0 0 0 0 0 0 0 0 0 0 0 0 0 0 1 0 1 0
0 0 0 0 0 0 0 0 0 0 0 0 0 0 0 0 0 0 0 0 0 0 0 0 0 0 0 0 0 0 0 0 1 0 0 0 0 0 0 0 0 0 0 0 0
0 0 0 0 0 0 0 0 0 0 0 0 0 0 0 0 0 0 0 0 0 0 0 0 0 0 0 0 0 0 0 0 0 0 0 0 0 0 0 0 0 0 0 0 0
0 0 0 0 0 0 0 0 0 0 0 0 0 0 0 0 0 0 0 0 0 0 0 0 0 0 0 0 0 0 0 0 0 0 0 0 0 0 0 0 0 0 0 0 0
0 0 0 0 0 0 0 0 0 0 0 0 0 0 0 0 0 0 0 0 0 0 0 0 0 0 0 0 0 0 0 0 0 0 0 0 0 0 0 0 0 0 0 0 0
0 0 0 0 0 0 0 0 0 0 0 0 0 0 0 0 0 0 0 0 0 0 0 0 0 0 0 0 0 0 0 0 0 0 0 0 0 0 0 0 0 0 0 0 0
CIN
0 -1 -3 -14 -1 -4 -5 -2 -9 -29 -5 -7 -3 0 0 0 0 0 0 0 0 0 0 0 0 0 0 0 0 0 0 0 0 0 0 0 0 0 0 0 0 0 0 0 0
-1 -10 -7 -3 -1 -8 0 -1 -27 -24 -18 -4 -2 0 0 0 0 0 0 0 0 0 0 0 0 0 0 0 0 0 0 0 0 0 0 0 0 0 0 0 0 0 0 0 0
-10 -1 -1 -1 -24 -6 0 0 -3 -4 0 -1 -5 -20 0 0 0 0 -1 0 0 0 0 0 0 0 0 0 0 0 0 0 0 0 0 0 0 0 0 0 0 0 0 0 0
0 0 0 0 0 0 -11 0 0 -68 -84 0 -2 -18 0 0 0 -1 -1 0 0 0 0 0 0 0 0 0 0 0 0 0 0 0 0 0 0 0 0 0 0 0 0 0 0
-8 0 0 0 0 0 0 -16 -49 -26 -24 0 -4 -34 0 0 -2 -3 -6 0 0 0 0 0 0 0 0 0 0 0 0 0 0 0 0 0 0 0 0 0 0 0 0 0 0
-7 0 0 0 0 0 0 -11 -11 -6 -64 0 -15 -10 0 0 0 0 0 0 0 0 0 0 0 0 0 0 0 0 0 0 0 0 0 0 0 0 0 0 0 0 0 0 0
-1 0 0 0 0 0 -8 -12 -9 -40 -1 0 0 0 0 0 0 0 0 0 0 0 0 0 0 0 0 0 0 0 0 0 0 0 0 0 0 0 0 0 0 0 0 0 0
0 -13 -84 -5 -4 -5 -11 -2 0 -14 -19 -1 0 0 0 0 0 0 0 0 0 0 0 0 0 0 0 0 0 0 0 0 0 0 0 0 0 0 0 0 0 0 0 0 0
0 -32 0 -21 -10 -11 0 0 -2 -37 -30 -44 0 0 0 0 0 0 0 0 0 0 0 0 0 0 0 0 0 0 0 0 0 0 0 0 0 0 0 0 0 0 0 0 0
-12 -2 0 0 0 -5 -1 -5 -48 -57 0 0 0 0 0 0 0 0 0 0 0 0 0 0 0 0 0 0 0 0 0 0 0 0 0 0 0 0 0 0 0 0 0 0 0
-4 -4 0 -11 0 0 0 0 0 0 0 0 0 0 0 0 0 0 0 0 0 0 0 0 0 0 0 0 0 0 0 0 0 0 0 0 0 0 0 0 0 0 0 0 0
-19 -10 -8 -8 -22 0 0 0 0 0 0 -1 -1 -1 0 0 0 0 0 0 0 0 0 0 0 0 0 0 0 0 0 0 0 0 0 0 0 0 0 0 0 0 0 0 0
-9 -3 -1 -15 0 0 0 0 0 0 0 0 -1 0 0 0 0 0 0 0 0 0 0 0 0 0 0 0 0 0 0 0 0 0 0 0 0 0 0 0 0 0 0 0 0
-13 0 0 -3 0 0 0 0 0 0 0 0 0 0 0 0 0 0 0 0 0 0 0 0 0 0 0 0 0 0 0 0 0 0 0 0 0 0 0 0 0 0 0 0 0
0 0 -23 -12 0 0 0 0 0 0 0 0 0 0 0 0 0 0 0 0 0 0 0 0 0 0 0 0 0 0 0 0 0 0 0 0 0 0 0 0 0 0 0 0 0
0 0 0 0 0 0 0 0 0 0 0 0 0 0 0 0 0 0 0 0 0 0 0 0 0 0 0 0 0 0 0 0 0 0 0 0 0 0 0 0 0 0 0 0 0
0 0 0 0 0 0 0 0 0 0 0 0 -1 0 0 0 0 0 0 0 0 0 0 0 0 0 0 0 0 0 0 0 0 0 0 0 0 0 0 0 0 0 0 0 0
0 0 0 0 0 0 0 0 0 -1 -1 0 -1 0 0 0 0 0 0 0 0 0 0 0 0 0 0 0 0 0 0 0 0 0 0 0 0 0 0 0 0 0 0 0 0
0 0 0 0 0 0 0 0 -1 0 0 0 0 0 0 0 0 0 0 0 0 -1 0 0 0 0 0 -3 0 0 0 0 0 0 0 0 0 0 0 0 0 0 0 0 0
0 0 0 0 0 0 0 0 0 0 0 0 0 0 0 0 0 -2 0 0 -1 0 0 0 0 -1 0 0 0 0 0 0 0 0 0 0 0 0 0 0 0 0 0 0 0
0 0 0 0 0 0 0 0 0 0 0 0 0 0 0 0 0 0 0 0 0 0 0 0 0 0 0 0 0 0 0 0 0 0 0 0 0 0 0 0 0 0 0 0 0
0 0 0 0 0 0 0 0 0 0 0 0 0 0 0 0 0 0 0 0 0 0 0 0 0 0 0 0 0 0 0 0 0 0 0 0 0 0 0 0 0 0 0 0 0
0 0 0 0 0 0 0 0 0 0 0 0 0 0 0 0 0 0 0 0 0 0 0 0 0 0 0 0 0 -1 0 0 -1 0 0 0 0 0 0 0 0 0 0 0 0
0 0 0 0 0 0 0 0 0 0 0 0 0 0 0 0 0 0 0 0 0 0 0 0 -2 0 0 0 0 0 0 0 0 0 0 0 0 0 0 0 0 0 0 0 0
0 0 0 0 0 0 0 0 0 0 0 0 0 0 0 0 0 0 0 0 0 0 0 0 0 0 0 0 0 0 0 0 0 0 0 0 0 0 0 0 0 0 0 0 0
0 0 0 0 0 0 0 0 0 0 0 0 0 0 0 0 0 0 0 0 0 0 0 0 0 0 0 0 0 0 0 0 0 0 0 0 0 0 0 0 0 0 0 0 0
0 0 0 0 0 0 0 0 0 0 0 0 0 0 0 0 0 0 0 0 0 0 0 0 0 0 0 0 0 0 0 0 0 0 0 0 0 0 0 0 0 0 0 0 0
Wind_Speed
11 10 8 11 12 11 12 15 13 13 16 15 14 13 12 12 12 12 14 15 14 14 15 14 12 12 12 12 13 15 17 18 20 16 13 16 15 17 15 16 17 17 17 12 11
15 15 14 11 12 11 12 14 14 14 15 15 12 11 12 11 11 11 15 15 14 14 13 11 11 11 13 15 16 17 19 18 17 16 16 16 16 18 18 20 19 18 15 14 14
23 20 16 12 13 12 13 16 17 19 18 16 12 11 11 11 14 16 15 14 14 16 15 15 10 11 14 13 15 17 20 17 17 17 18 19 20 21 21 22 18 21 23 21 21
25 24 21 17 12 13 13 13 15 16 17 9 8 7 11 15 22 16 16 15 15 16 14 12 12 15 15 17 15 18 16 17 17 19 21 22 24 25 23 22 25 27 26 26 28
21 20 22 19 15 11 15 14 14 14 15 9 9 7 10 12 14 16 15 14 15 15 13 13 13 15 15 15 16 19 18 18 17 20 22 23 26 27 29 28 29 31 32 33 33
23 22 21 21 16 13 12 14 14 14 20 23 11 8 7 9 14 16 16 15 14 12 12 12 14 12 13 15 18 18 18 20 20 21 23 26 27 26 27 27 27 28 30 31 32
25 24 20 19 18 17 10 10 4 6 6 8 10 3 2 7 13 14 11 10 11 9 10 12 13 14 13 16 16 17 20 22 22 21 24 26 32 29 27 28 30 30 30 32 33
25 26 23 21 20 19 10 4 3 8 7 7 8 4 2 10 13 9 6 7 7 9 10 12 11 11 13 12 16 20 21 25 22 22 24 26 35 28 27 28 32 33 33 34 36
25 24 26 27 25 27 24 11 5 7 6 5 6 8 9 14 6 6 6 5 6 8 9 10 11 12 13 15 19 21 26 25 26 23 26 27 34 28 30 38 42 39 37 37 38
26 23 25 31 33 30 16 11 6 5 9 8 9 5 9 5 5 7 8 9 8 8 10 12 13 14 16 20 28 26 27 28 30 29 30 35 40 40 39 40 41 40 39 38 38
28 20 18 26 28 13 9 7 12 12 1 8 7 1 7 8 7 9 12 12 12 11 12 14 13 17 17 17 19 22 26 29 29 27 34 36 42 43 42 40 41 40 39 37 38
22 9 15 22 31 13 14 9 7 15 8 7 5 2 5 9 7 9 12 10 9 10 13 14 16 15 15 17 19 22 25 28 30 28 33 38 47 43 38 33 32 32 31 31 31
11 3 13 22 33 22 17 16 16 10 7 2 2 3 7 7 8 11 11 10 9 9 10 12 14 14 15 17 19 21 24 25 28 33 30 38 39 28 26 27 25 25 26 29 34
11 8 14 25 29 26 21 16 14 12 4 5 8 9 9 9 9 11 12 12 13 10 10 12 14 15 16 17 17 21 21 24 27 31 33 30 39 32 30 32 25 26 31 35 40
10 12 6 22 31 23 18 15 11 13 7 10 8 11 11 9 8 11 13 10 9 10 13 13 12 14 15 16 16 18 21 25 26 28 32 27 32 30 31 25 27 31 36 39 42
9 10 23 25 22 18 14 11 11 7 5 8 9 9 8 8 9 11 12 11 12 11 11 11 13 14 14 15 17 21 23 24 22 26 31 26 27 30 29 30 31 36 40 44 47
9 7 15 16 14 12 10 12 7 6 10 7 7 6 7 8 9 10 9 10 12 11 12 14 14 15 15 16 18 20 22 26 28 29 31 26 27 27 26 27 31 36 37 42 46
11 10 15 14 10 10 11 10 10 7 6 13 5 6 7 9 10 11 10 11 12 13 11 14 16 13 14 16 18 19 19 24 30 29 28 25 24 25 20 21 30 36 41 42 40
7 14 12 12 12 13 15 22 22 5 6 5 6 8 9 10 10 10 11 12 13 15 13 14 14 15 16 16 15 17 18 18 22 22 23 21 19 20 21 26 30 31 28 27 23
14 15 14 10 13 18 23 27 25 23 14 4 14 8 10 10 11 12 12 14 13 14 15 14 15 15 15 15 16 16 17 18 18 16 16 17 17 16 20 22 23 22 19 15 15
19 23 18 13 19 22 29 28 26 22 20 19 18 20 20 20 19 17 17 16 13 13 14 15 15 16 16 17 15 17 17 18 17 17 16 14 15 12 13 15 16 14 9 9 10
21 25 13 13 24 25 28 26 25 22 19 19 18 19 20 20 19 18 19 17 19 19 16 16 16 16 17 17 18 18 18 18 16 16 16 15 15 16 9 9 13 13 9 4 5
22 21 15 15 25 26 26 25 23 22 20 20 20 18 18 19 19 19 19 17 18 17 17 17 16 15 15 15 17 17 18 20 18 17 17 16 16 16 9 6 6 5 4 0 3
17 21 18 18 20 25 24 23 23 20 20 19 20 18 18 18 17 18 17 16 18 17 17 17 16 16 16 15 15 16 16 18 21 18 17 18 17 15 12 10 6 6 4 1 3
16 18 18 20 18 18 17 19 21 19 18 18 18 18 18 17 17 17 16 16 17 17 16 16 14 15 16 17 17 17 18 19 21 22 18 15 15 15 13 11 4 7 7 5 4
16 16 15 16 18 17 16 16 17 17 18 17 17 18 17 17 16 16 16 16 15 17 17 15 13 12 13 15 16 17 19 20 20 19 19 16 17 15 14 8 7 8 8 7 7
13 14 15 14 15 16 16 16 15 16 15 16 16 15 15 14 14 14 15 15 15 16 16 15 14 12 13 12 13 14 16 18 17 16 14 13 12 9 7 7 8 10 11 10 8
Wind_Direction
7 10 5 351 328 289 266 246 259 266 248 245 244 249 251 258 262 268 267 276 281 276 278 273 274 272 279 278 284 286 274 272 279 287 291 294 297 305 311 301 305 309 309 313 316
12 16 29 13 352 330 281 273 271 261 259 243 235 240 246 246 259 267 275 278 279 274 273 268 264 269 273 271 273 273 272 278 287 289 288 295 300 298 298 296 298 304 317 311 310
37 27 26 12 352 330 315 278 274 258 261 241 229 231 235 247 254 265 281 280 274 274 273 273 263 272 271 273 274 274 271 279 286 293 294 293 293 297 296 291 295 297 297 300 301
31 38 45 44 352 307 303 302 276 264 255 205 193 221 230 251 246 270 275 272 270 271 273 268 259 264 266 263 274 268 282 287 287 293 292 291 293 291 293 293 292 293 297 296 294
6 4 27 39 32 336 273 281 279 265 236 215 180 197 253 251 255 271 277 272 270 269 267 264 257 267 264 270 272 277 282 289 292 293 293 294 291 290 288 291 292 291 291 290 291
360 359 8 25 7 9 318 267 262 247 217 213 191 228 248 236 271 274 271 266 269 268 270 269 269 280 276 277 275 281 284 287 291 292 294 291 293 295 294 297 295 295 293 294 294
358 349 343 27 36 32 358 283 248 209 193 169 207 169 83 264 273 277 278 279 277 277 268 284 279 275 278 274 285 287 282 286 288 293 294 298 289 288 296 295 292 294 295 294 294
356 358 10 36 51 43 6 61 150 170 163 181 198 166 327 278 262 282 290 293 298 285 279 285 290 287 283 287 286 283 285 280 289 294 297 299 286 294 299 299 295 294 294 294 292
7 16 25 32 50 57 71 85 127 151 157 213 228 225 260 276 326 313 321 310 308 293 287 286 287 282 284 278 281 288 279 284 286 294 294 293 289 293 297 294 291 292 293 293 292
27 25 34 44 58 66 57 68 88 176 202 237 236 265 262 279 303 323 306 286 284 287 286 287 290 280 285 280 272 276 279 282 284 291 291 290 287 290 294 293 292 293 294 294 294
58 24 28 42 57 39 192 204 200 206 111 239 244 149 231 264 303 289 288 282 280 284 271 285 277 275 283 290 287 285 284 285 291 298 296 293 291 293 296 297 295 294 294 296 296
56 359 29 37 93 148 134 136 153 174 113 64 87 79 271 272 272 294 267 285 299 282 281 281 278 292 299 298 294 291 289 290 295 301 301 297 291 297 299 302 302 301 302 304 306
131 85 148 110 106 140 131 133 152 170 150 101 17 283 266 279 268 272 285 283 297 302 299 288 289 294 298 297 294 295 293 297 297 301 304 303 299 306 311 314 313 313 312 309 308
134 121 128 127 128 133 140 150 157 180 177 277 263 265 264 255 261 282 287 285 285 298 306 306 294 294 298 298 300 293 305 305 304 305 298 315 296 306 312 312 314 318 315 312 309
143 137 130 133 132 141 143 146 176 192 229 262 263 262 260 261 273 292 285 301 302 301 296 300 305 303 304 307 313 306 309 306 307 306 306 310 302 308 315 317 320 319 316 314 312
144 149 127 126 134 138 149 168 181 258 252 258 266 267 277 297 290 291 290 292 275 302 323 321 313 314 315 323 320 312 311 311 313 311 302 312 308 308 316 319 322 321 314 312 311
150 160 147 144 152 149 173 172 313 348 226 252 252 271 271 274 278 281 294 310 314 315 317 316 319 323 322 325 328 326 320 308 304 306 304 315 311 311 318 325 323 305 295 296 300
145 177 141 139 181 174 180 319 359 311 261 207 281 289 265 282 287 290 312 325 316 330 330 322 313 330 330 329 328 329 327 313 305 307 311 315 301 295 322 270 300 310 315 313 307
156 140 139 149 151 150 148 122 145 279 278 308 295 320 306 295 304 317 333 335 322 314 335 330 329 328 328 332 340 335 326 316 259 250 253 241 231 236 269 289 298 305 304 307 306
119 124 127 149 152 138 120 117 131 149 121 118 188 262 339 333 338 337 331 320 328 331 323 339 310 319 326 323 314 311 295 244 236 224 217 222 225 211 275 289 300 308 308 308 307
110 105 118 123 125 118 110 117 128 142 149 145 150 150 151 157 165 177 195 216 262 272 276 262 243 236 244 214 205 232 226 213 222 214 209 224 202 173 250 281 291 290 294 305 309
105 99 120 122 109 109 108 116 124 129 140 146 149 147 147 150 155 161 165 173 170 163 188 193 196 198 201 220 175 203 202 196 201 202 205 202 203 178 226 262 277 278 276 281 307
101 103 116 116 106 107 114 117 120 123 129 133 136 145 153 149 148 154 162 175 171 180 180 178 184 184 187 196 181 196 199 197 205 207 191 190 197 181 195 241 199 139 104 41 326
109 99 109 112 117 111 111 113 114 128 123 128 130 140 140 138 148 148 158 167 165 181 177 177 181 182 180 183 194 194 190 186 183 193 201 197 224 220 231 232 189 91 97 134 71
116 109 111 106 113 119 120 119 113 114 122 134 131 138 136 141 150 153 157 169 171 171 169 163 192 192 202 214 218 213 207 193 183 192 196 204 213 229 223 221 148 77 81 103 113
114 118 126 118 121 117 119 124 126 123 119 124 131 132 142 138 143 143 148 155 148 154 160 173 193 212 219 212 205 208 209 200 194 192 200 209 226 227 219 139 95 101 116 134 137
143 131 120 129 124 118 120 120 129 137 142 135 139 138 146 157 170 175 181 176 169 171 169 178 196 211 204 197 233 202 174 170 171 174 176 183 191 178 149 131 140 147 150 161 162